Flag for Austria Weather past 2 weeks in Wals-Siezenheim, Salzburg, Austria

Now
75 °F

Sunny.


Feels Like: 78 °F
Forecast: 66 / 87 °F
Wind: 8 mph from Southeast

Location: Salzburg-Flughafen

Current Time: Aug 31, 2015 at 9:48:14 AM

Latest Report: Aug 31, 2015 at 9:20 AM


Visibility: 10 mi

Pressure: 30.04 "Hg

Humidity: 50%

Dew point: 55 °F

Location of Wals-SiezenheimLocation

Historic Weather in Wals-Siezenheim — Graph

°F

Wals-Siezenheim temperature yesterday

Maximum temperature yesterday: 91 °F (at 1:20 PM)
Minimum temperature yesterday: 63 °F (at 1:50 AM)
Average temperature yesterday: 77 °F

Past Weeks' High & Low Weather Summary

 TemperatureHumidityPressure
High91 °F (Aug 30, 1:20 PM)100% (Aug 17, 9:20 AM)30.30 "Hg (Aug 17, 9:20 AM)
Low50 °F (Aug 23, 3:50 AM)33% (Aug 28, 6:20 PM)29.71 "Hg (Aug 24, 2:50 PM)
Average67 °F71%30.05 "Hg
* Reported Aug 16 7:20 AM — Aug 31 7:50 AM, Wals-Siezenheim, Weather by CustomWeather, © 2015

Note: Actual official high and low records may vary slightly from our data, if they occured in-between our weather recording intervals... More about our weather records

Advertising

Wals-Siezenheim weather history for previous 24 hours

 ConditionsComfort  
Time TempWeatherWind HumidityBarometerVisibility
7:50 AM
Mon, Aug 31
70 °FSunny.12 mph57%30.04 "Hg10 mi
7:20 AM68 °FPassing clouds.14 mph60%30.04 "HgN/A
6:50 AM68 °FPassing clouds.12 mph60%30.04 "HgN/A
6:20 AM68 °FPassing clouds.10 mph60%30.01 "HgN/A
5:50 AM70 °FClear.13 mph57%30.01 "Hg10 mi
5:20 AM68 °FMild.10 mph60%30.01 "HgN/A
4:50 AM70 °FMild.9 mph57%30.01 "HgN/A
4:20 AM70 °FMild.9 mph60%30.01 "HgN/A
3:50 AM70 °FMild.9 mph60%30.04 "HgN/A
3:20 AM70 °FMild.9 mph64%30.04 "HgN/A
2:50 AM70 °FMild.8 mph64%30.04 "HgN/A
2:20 AM70 °FMild.9 mph69%30.04 "HgN/A
1:50 AM70 °FMild.7 mph69%30.07 "HgN/A
1:20 AM72 °FMild.5 mph69%30.07 "HgN/A
12:50 AM72 °FMild.6 mph73%30.07 "HgN/A
12:20 AM72 °FMild.6 mph73%30.07 "HgN/A
11:50 PM
Sun, Aug 30
72 °FMild.5 mph73%30.07 "HgN/A
11:20 PM72 °FMild.3 mph78%30.07 "HgN/A
10:50 PM73 °FClear.7 mph69%30.07 "Hg10 mi
10:20 PM73 °FClear.7 mph69%30.07 "Hg10 mi
9:50 PM75 °FClear.6 mph65%30.07 "Hg10 mi
9:20 PM77 °FClear.5 mph65%30.07 "Hg10 mi
8:50 PM75 °FSunny.5 mph74%30.07 "Hg10 mi
8:20 PM79 °FSunny.2 mph70%30.04 "Hg10 mi
7:50 PM84 °FSunny.2 mph58%30.04 "Hg10 mi
7:20 PM88 °FSunny.5 mph46%30.04 "Hg10 mi
6:50 PM90 °FHot.6 mph43%30.04 "HgN/A
6:20 PM90 °FPassing clouds.5 mph43%30.04 "HgN/A
5:50 PM91 °FPassing clouds.6 mph38%30.07 "HgN/A
5:20 PM91 °FPassing clouds.6 mph38%30.07 "HgN/A
4:50 PM91 °FPassing clouds.6 mph38%30.07 "HgN/A
4:20 PM91 °FPassing clouds.7 mph38%30.07 "HgN/A
3:50 PM91 °FPassing clouds.7 mph38%30.09 "HgN/A
3:20 PM91 °FPassing clouds.7 mph36%30.09 "HgN/A
2:50 PM91 °FPassing clouds.12 mph36%30.09 "HgN/A
2:20 PM91 °FPassing clouds.10 mph36%30.12 "HgN/A
1:50 PM91 °FPassing clouds.9 mph38%30.12 "HgN/A
1:20 PM91 °FPassing clouds.9 mph36%30.12 "HgN/A
12:50 PM88 °FSunny.2 mph38%30.12 "Hg10 mi
12:20 PM86 °FPassing clouds.5 mph38%30.15 "HgN/A
11:50 AM86 °FPassing clouds.5 mph33%30.15 "HgN/A
11:20 AM84 °FPassing clouds.6 mph33%30.15 "HgN/A
10:50 AM81 °FPassing clouds.6 mph39%30.15 "HgN/A
10:20 AM79 °FSunny.7 mph45%30.15 "Hg10 mi
9:50 AM77 °FSunny.8 mph51%30.15 "Hg10 mi
9:20 AM75 °FSunny.9 mph47%30.15 "Hg10 mi
Weather by CustomWeather, © 2015

See weather overviewHow to use our weather pages